This is the latest recevied weather packets stored in our database for station/object K5FEP. If no packets are shown the sender has not sent any weather packets the latest 10 day(s).
| Time | Temp. | Humidity | Pressure | Rain* | Wind** | Luminosity | Snow |
|---|---|---|---|---|---|---|---|
| 1777828106 | 15° C | 29% | 1018.3 hPa | 0 mm | - | 991 W/m² | - |
| 1777827803 | 15° C | 30% | 1018.2 hPa | 0 mm | - | 991 W/m² | - |
| 1777827500 | 14.44° C | 30% | 1018.3 hPa | 0 mm | - | 990 W/m² | - |
| 1777827198 | 14.44° C | 29% | 1018.2 hPa | 0 mm | - | 989 W/m² | - |
| 1777826893 | 15° C | 28% | 1018.4 hPa | 0 mm | - | 988 W/m² | - |
| 1777826591 | 14.44° C | 31% | 1018.5 hPa | 0 mm | - | 986 W/m² | - |
| 1777826287 | 15° C | 29% | 1018.6 hPa | 0 mm | - | 983 W/m² | - |
| 1777825985 | 15° C | 30% | 1018.6 hPa | 0 mm | - | 979 W/m² | - |
| 1777825681 | 14.44° C | 32% | 1018.5 hPa | 0 mm | - | 975 W/m² | - |
| 1777825379 | 14.44° C | 32% | 1018.6 hPa | 0 mm | - | 970 W/m² | - |
| 1777825076 | 15° C | 32% | 1018.9 hPa | 0 mm | - | 967 W/m² | - |
| 1777824772 | 14.44° C | 31% | 1018.7 hPa | 0 mm | - | 959 W/m² | - |
| 1777824469 | 13.89° C | 31% | 1018.9 hPa | 0 mm | - | 953 W/m² | - |
| 1777824165 | 13.33° C | 34% | 1018.8 hPa | 0 mm | - | 948 W/m² | - |
| 1777823861 | 13.33° C | 31% | 1019 hPa | 0 mm | - | 939 W/m² | - |
| 1777823559 | 13.33° C | 32% | 1018.9 hPa | 0 mm | - | 933 W/m² | - |
| 1777823256 | 13.33° C | 32% | 1019.1 hPa | 0 mm | - | 925 W/m² | - |
| 1777822953 | 13.33° C | 33% | 1019 hPa | 0 mm | - | 918 W/m² | - |
| 1777822651 | 13.89° C | 32% | 1019 hPa | 0 mm | - | 910 W/m² | - |
| 1777822349 | 13.89° C | 35% | 1019 hPa | 0 mm | - | 902 W/m² | - |
| 1777822046 | 13.89° C | 33% | 1019 hPa | 0 mm | - | 890 W/m² | - |
| 1777821744 | 13.33° C | 34% | 1019.3 hPa | 0 mm | - | 880 W/m² | - |
| 1777821441 | 12.78° C | 32% | 1019.2 hPa | 0 mm | - | 868 W/m² | - |
| 1777821138 | 13.33° C | 33% | 1019.1 hPa | 0 mm | - | 857 W/m² | - |
| 1777820835 | 13.33° C | 33% | 1019.2 hPa | 0 mm | - | 846 W/m² | - |
* Rain latest hour (hover to see other rain measurements)
** Current wind speed in m/s (hover to see current wind gust speed)